CAS9311 KDCA-KJAX

Flight info

Callsign CAS9311
Flight time N/A
Altitude 38000
Route OTT186020 GUILD Q409 SESUE ESENT LUNNI2 KJAX
Aircraft B736/M-SDE2E3FGHIRWXY/LB1

Departure

Time N/A
Airport Ronald Reagan Washington National Airport (KDCA)

Arrival

Time 2026-05-05 21:18
Airport Jacksonville International Airport (KJAX)
Time Latitude Longitude Altitude Speed Heading
2026-05-05 20:56 31.70052 -81.06128 24071 ft 441 kts 201°
2026-05-05 20:56 31.67102 -81.07066 24072 ft 440 kts 201°
2026-05-05 20:56 31.64169 -81.07996 24066 ft 440 kts 201°
2026-05-05 20:57 31.60322 -81.09209 23722 ft 421 kts 201°
2026-05-05 20:57 31.58440 -81.09806 23434 ft 428 kts 201°
2026-05-05 20:57 31.55537 -81.10731 22787 ft 432 kts 201°
2026-05-05 20:57 31.52692 -81.11628 22150 ft 418 kts 200°
2026-05-05 20:58 31.49919 -81.12502 21559 ft 413 kts 200°
2026-05-05 20:58 31.47165 -81.13375 20960 ft 414 kts 200°
2026-05-05 20:58 31.44443 -81.14233 20340 ft 401 kts 200°
2026-05-05 20:58 31.41738 -81.15086 19763 ft 404 kts 200°
2026-05-05 20:59 31.39050 -81.15936 19134 ft 398 kts 199°
2026-05-05 20:59 31.36433 -81.16759 18540 ft 386 kts 199°
2026-05-05 20:59 31.33859 -81.17572 17998 ft 392 kts 199°
2026-05-05 20:59 31.31271 -81.18387 17429 ft 380 kts 199°
2026-05-05 21:00 31.28740 -81.19183 16917 ft 379 kts 199°
2026-05-05 21:00 31.26216 -81.19978 16328 ft 377 kts 199°
2026-05-05 21:00 31.23705 -81.20766 15743 ft 364 kts 198°
2026-05-05 21:00 31.21238 -81.21475 15212 ft 371 kts 195°
2026-05-05 21:01 31.18772 -81.22002 14637 ft 361 kts 193°
2026-05-05 21:01 31.16315 -81.22485 14092 ft 359 kts 193°
2026-05-05 21:01 31.13862 -81.22977 13533 ft 356 kts 193°
2026-05-05 21:01 31.11490 -81.23457 12978 ft 345 kts 193°
2026-05-05 21:02 31.09113 -81.23944 12457 ft 350 kts 193°
2026-05-05 21:02 31.06749 -81.24430 11891 ft 338 kts 193°
2026-05-05 21:02 31.04433 -81.24909 11374 ft 342 kts 192°
2026-05-05 21:02 31.02118 -81.25389 10832 ft 335 kts 192°
2026-05-05 21:03 30.99909 -81.25845 10492 ft 315 kts 192°
2026-05-05 21:03 30.97807 -81.26278 10409 ft 303 kts 192°
2026-05-05 21:03 30.95729 -81.26710 10379 ft 302 kts 192°
2026-05-05 21:03 30.93735 -81.27121 10211 ft 282 kts 192°
2026-05-05 21:04 30.91871 -81.27506 10043 ft 268 kts 192°
2026-05-05 21:04 30.90015 -81.27891 10028 ft 274 kts 192°
2026-05-05 21:04 30.88131 -81.28282 10020 ft 275 kts 192°
2026-05-05 21:04 30.86238 -81.28673 10020 ft 275 kts 192°
2026-05-05 21:05 30.84361 -81.29061 10023 ft 276 kts 192°
2026-05-05 21:05 30.82485 -81.29472 10021 ft 275 kts 197°
2026-05-05 21:05 30.80815 -81.30515 10020 ft 272 kts 224°
2026-05-05 21:05 30.79824 -81.32359 10040 ft 272 kts 250°
2026-05-05 21:06 30.79192 -81.34415 10036 ft 274 kts 249°
2026-05-05 21:06 30.78375 -81.36430 10025 ft 272 kts 240°
2026-05-05 21:06 30.77350 -81.38273 10030 ft 272 kts 235°
2026-05-05 21:06 30.76255 -81.40028 10031 ft 272 kts 233°
2026-05-05 21:07 30.75111 -81.41785 10032 ft 272 kts 233°
2026-05-05 21:07 30.73947 -81.43550 10032 ft 272 kts 233°
2026-05-05 21:07 30.72793 -81.45293 10034 ft 272 kts 233°
2026-05-05 21:07 30.71649 -81.47021 10034 ft 272 kts 233°
2026-05-05 21:08 30.70494 -81.48765 10033 ft 272 kts 233°
2026-05-05 21:08 30.69337 -81.50512 10033 ft 272 kts 233°
2026-05-05 21:08 30.68194 -81.52238 10007 ft 266 kts 233°
2026-05-05 21:08 30.67161 -81.54008 9540 ft 269 kts 245°
2026-05-05 21:09 30.66529 -81.56076 8729 ft 278 kts 253°
2026-05-05 21:09 30.66046 -81.58237 7983 ft 282 kts 255°
2026-05-05 21:09 30.65584 -81.60426 7432 ft 277 kts 256°
2026-05-05 21:09 30.65135 -81.62559 7057 ft 266 kts 256°
2026-05-05 21:10 30.64701 -81.64625 6694 ft 263 kts 256°
2026-05-05 21:10 30.64268 -81.66689 6322 ft 263 kts 255°
2026-05-05 21:10 30.63838 -81.68741 6066 ft 260 kts 255°
2026-05-05 21:10 30.63413 -81.70775 5876 ft 261 kts 255°
2026-05-05 21:11 30.62984 -81.72830 5677 ft 261 kts 255°
2026-05-05 21:11 30.62559 -81.74875 5481 ft 261 kts 255°
2026-05-05 21:11 30.62160 -81.76910 5241 ft 249 kts 257°
2026-05-05 21:11 30.61802 -81.78825 4679 ft 244 kts 254°
2026-05-05 21:12 30.61308 -81.80662 4318 ft 228 kts 246°
2026-05-05 21:12 30.60525 -81.82140 4086 ft 207 kts 225°
2026-05-05 21:12 30.59429 -81.83068 3947 ft 185 kts 204°
2026-05-05 21:12 30.58265 -81.83453 3803 ft 166 kts 187°
2026-05-05 21:13 30.57122 -81.83500 3347 ft 171 kts 175°
2026-05-05 21:13 30.55996 -81.83303 3171 ft 157 kts 168°
2026-05-05 21:13 30.54996 -81.82993 3072 ft 143 kts 163°
2026-05-05 21:13 30.54062 -81.82617 2879 ft 138 kts 160°
2026-05-05 21:14 30.53144 -81.82214 2634 ft 144 kts 159°
2026-05-05 21:14 30.52234 -81.81745 2518 ft 141 kts 154°
2026-05-05 21:14 30.51394 -81.81218 2406 ft 137 kts 149°
2026-05-05 21:14 30.50584 -81.80626 2203 ft 139 kts 146°
2026-05-05 21:15 30.49809 -81.79959 1975 ft 137 kts 137°
2026-05-05 21:15 30.49204 -81.79112 1711 ft 136 kts 124°
2026-05-05 21:15 30.48696 -81.78223 1495 ft 132 kts 123°
2026-05-05 21:15 30.48189 -81.77369 1335 ft 125 kts 120°
2026-05-05 21:16 30.47880 -81.76452 1190 ft 119 kts 99°
2026-05-05 21:16 30.47988 -81.75499 1018 ft 125 kts 75°
2026-05-05 21:16 30.48296 -81.74537 807 ft 129 kts 76°
2026-05-05 21:16 30.48561 -81.73541 643 ft 130 kts 72°
2026-05-05 21:17 30.48865 -81.72562 471 ft 129 kts 75°
2026-05-05 21:17 30.49163 -81.71575 306 ft 128 kts 73°
2026-05-05 21:17 30.49445 -81.70589 132 ft 128 kts 73°
2026-05-05 21:17 30.49743 -81.69622 39 ft 124 kts 75°
2026-05-05 21:18 30.49967 -81.68866 25 ft 61 kts 71°
2026-05-05 21:18 30.50042 -81.68604 25 ft 19 kts 81°
2026-05-05 21:18 30.50007 -81.68488 25 ft 12 kts 137°
2026-05-05 21:18 30.49945 -81.68448 25 ft 8 kts 163°
2026-05-05 21:19 30.49891 -81.68445 25 ft 7 kts 189°
2026-05-05 21:19 30.49833 -81.68456 25 ft 9 kts 188°
2026-05-05 21:19 30.49758 -81.68471 25 ft 11 kts 191°
2026-05-05 21:19 30.49679 -81.68488 25 ft 11 kts 191°
2026-05-05 21:20 30.49602 -81.68507 25 ft 11 kts 191°
2026-05-05 21:20 30.49531 -81.68522 25 ft 9 kts 189°
2026-05-05 21:20 30.49468 -81.68517 25 ft 8 kts 174°
2026-05-05 21:20 30.49421 -81.68509 25 ft 5 kts 197°
2026-05-05 21:21 30.49402 -81.68519 25 ft 1 kts 188°
2026-05-05 21:21 30.49390 -81.68508 25 ft 3 kts 119°
2026-05-05 21:21 30.49368 -81.68465 25 ft 8 kts 154°
2026-05-05 21:21 30.49344 -81.68489 25 ft 3 kts 266°
2026-05-05 21:22 30.49342 -81.68509 25 ft 0 kts 265°